Time,TemperatureF,DewpointF,PressureIn,WindDirection,WindDirectionDegrees,WindSpeedMPH,WindSpeedGustMPH,Humidity,HourlyPrecipIn,Conditions,Clouds,dailyrainin,SoftwareType,DateUTC
2013-03-21 00:02:00,51.0,-99.9,30.11,WSW,248,8.0,11.0,-999,-99.99,,,-99.99,,2013-03-21 07:02:00,
2013-03-21 00:13:00,51.0,-99.9,30.11,SW,222,4.0,13.0,-999,-99.99,,,-99.99,,2013-03-21 07:13:00,
2013-03-21 00:22:00,51.0,-99.9,30.11,NNE,22,1.0,4.0,-999,-99.99,,,-99.99,,2013-03-21 07:22:00,
2013-03-21 00:32:00,51.0,-99.9,30.11,WSW,258,2.0,6.0,-999,-99.99,,,-99.99,,2013-03-21 07:32:00,
2013-03-21 00:43:00,51.0,-99.9,30.11,West,264,3.0,6.0,-999,-99.99,,,-99.99,,2013-03-21 07:43:00,
2013-03-21 00:53:00,51.0,-99.9,30.11,WSW,243,7.0,11.0,-999,-99.99,,,-99.99,,2013-03-21 07:53:00,
2013-03-21 01:02:00,51.0,-99.9,30.11,WSW,247,7.0,13.0,-999,-99.99,,,-99.99,,2013-03-21 08:02:00,
2013-03-21 01:13:00,50.0,-99.9,30.11,WSW,238,8.0,11.0,-999,-99.99,,,-99.99,,2013-03-21 08:13:00,
2013-03-21 01:23:00,50.0,-99.9,30.11,WSW,244,9.0,15.0,-999,-99.99,,,-99.99,,2013-03-21 08:23:00,
2013-03-21 01:33:00,49.0,-99.9,30.10,WSW,238,7.0,12.0,-999,-99.99,,,-99.99,,2013-03-21 08:33:00,
2013-03-21 01:43:00,49.0,-99.9,30.10,WSW,242,10.0,15.0,-999,-99.99,,,-99.99,,2013-03-21 08:43:00,
2013-03-21 01:52:00,49.0,-99.9,30.09,WSW,238,10.0,16.0,-999,-99.99,,,-99.99,,2013-03-21 08:52:00,
2013-03-21 02:02:00,49.0,-99.9,30.09,WSW,249,8.0,15.0,-999,-99.99,,,-99.99,,2013-03-21 09:02:00,
2013-03-21 02:11:00,49.0,-99.9,30.09,WSW,244,9.0,12.0,-999,-99.99,,,-99.99,,2013-03-21 09:11:00,
2013-03-21 02:22:00,49.0,-99.9,30.10,West,259,9.0,13.0,-999,-99.99,,,-99.99,,2013-03-21 09:22:00,
2013-03-21 02:33:00,49.0,-99.9,30.10,WSW,248,6.0,10.0,-999,-99.99,,,-99.99,,2013-03-21 09:33:00,
2013-03-21 02:43:00,49.0,-99.9,30.10,WSW,245,7.0,10.0,-999,-99.99,,,-99.99,,2013-03-21 09:43:00,
2013-03-21 02:53:00,49.0,-99.9,30.10,SW,235,6.0,11.0,-999,-99.99,,,-99.99,,2013-03-21 09:53:00,
2013-03-21 03:03:00,49.0,-99.9,30.10,WSW,239,6.0,11.0,-999,-99.99,,,-99.99,,2013-03-21 10:03:00,
2013-03-21 03:12:00,49.0,-99.9,30.10,WSW,255,7.0,10.0,-999,-99.99,,,-99.99,,2013-03-21 10:12:00,
2013-03-21 03:23:00,49.0,-99.9,30.10,WSW,251,6.0,10.0,-999,-99.99,,,-99.99,,2013-03-21 10:23:00,
2013-03-21 03:34:00,49.0,-99.9,30.10,WSW,247,7.0,11.0,-999,-99.99,,,-99.99,,2013-03-21 10:34:00,
2013-03-21 03:43:00,49.0,-99.9,30.10,WSW,254,6.0,11.0,-999,-99.99,,,-99.99,,2013-03-21 10:43:00,
2013-03-21 03:53:00,48.0,-99.9,30.10,WSW,250,9.0,12.0,-999,-99.99,,,-99.99,,2013-03-21 10:53:00,
2013-03-21 04:03:00,48.0,-99.9,30.10,WSW,251,5.0,13.0,-999,-99.99,,,-99.99,,2013-03-21 11:03:00,
2013-03-21 04:13:00,48.0,-99.9,30.10,WSW,255,8.0,11.0,-999,-99.99,,,-99.99,,2013-03-21 11:13:00,
2013-03-21 04:23:00,48.0,-99.9,30.10,WSW,257,7.0,10.0,-999,-99.99,,,-99.99,,2013-03-21 11:23:00,
2013-03-21 04:33:00,48.0,-99.9,30.10,West,259,2.0,6.0,-999,-99.99,,,-99.99,,2013-03-21 11:33:00,
2013-03-21 04:43:00,48.0,-99.9,30.10,WNW,289,5.0,7.0,-999,-99.99,,,-99.99,,2013-03-21 11:43:00,
2013-03-21 04:53:00,48.0,-99.9,30.10,West,272,8.0,11.0,-999,-99.99,,,-99.99,,2013-03-21 11:53:00,
2013-03-21 05:03:00,48.0,-99.9,30.10,West,272,8.0,11.0,-999,-99.99,,,-99.99,,2013-03-21 12:03:00,
2013-03-21 05:13:00,48.0,-99.9,30.11,WNW,282,5.0,11.0,-999,-99.99,,,-99.99,,2013-03-21 12:13:00,
2013-03-21 05:22:00,48.0,-99.9,30.10,NW,323,11.0,15.0,-999,-99.99,,,-99.99,,2013-03-21 12:22:00,
2013-03-21 05:33:00,48.0,-99.9,30.10,WNW,303,9.0,13.0,-999,-99.99,,,-99.99,,2013-03-21 12:33:00,
2013-03-21 05:43:00,48.0,-99.9,30.09,WNW,294,6.0,14.0,-999,-99.99,,,-99.99,,2013-03-21 12:43:00,
2013-03-21 05:53:00,48.0,-99.9,30.09,WNW,301,4.0,9.0,-999,-99.99,,,-99.99,,2013-03-21 12:53:00,
2013-03-21 06:03:00,48.0,-99.9,30.09,NW,312,9.0,11.0,-999,-99.99,,,-99.99,,2013-03-21 13:03:00,
2013-03-21 06:13:00,48.0,-99.9,30.09,NW,317,7.0,11.0,-999,-99.99,,,-99.99,,2013-03-21 13:13:00,
2013-03-21 06:22:00,48.0,-99.9,30.08,NW,324,9.0,11.0,-999,-99.99,,,-99.99,,2013-03-21 13:22:00,
2013-03-21 06:33:00,48.0,-99.9,30.08,NW,318,9.0,10.0,-999,-99.99,,,-99.99,,2013-03-21 13:33:00,
2013-03-21 06:43:00,48.0,-99.9,30.07,NW,316,8.0,10.0,-999,-99.99,,,-99.99,,2013-03-21 13:43:00,
2013-03-21 06:53:00,47.0,-99.9,30.10,West,279,6.0,9.0,-999,-99.99,,,-99.99,,2013-03-21 13:53:00,
2013-03-21 07:02:00,47.0,-99.9,30.10,West,279,6.0,9.0,-999,-99.99,,,-99.99,,2013-03-21 14:02:00,
2013-03-21 07:12:00,48.0,-99.9,30.09,NW,309,6.0,10.0,-999,-99.99,,,-99.99,,2013-03-21 14:12:00,
2013-03-21 07:22:00,48.0,-99.9,30.09,NW,320,6.0,9.0,-999,-99.99,,,-99.99,,2013-03-21 14:22:00,
2013-03-21 07:32:00,48.0,-99.9,30.09,NW,320,6.0,9.0,-999,-99.99,,,-99.99,,2013-03-21 14:32:00,
2013-03-21 07:43:00,47.0,-99.9,30.09,WNW,303,4.0,6.0,-999,-99.99,,,-99.99,,2013-03-21 14:43:00,
2013-03-21 07:52:00,47.0,-99.9,30.09,West,273,4.0,5.0,-999,-99.99,,,-99.99,,2013-03-21 14:52:00,
2013-03-21 08:04:00,48.0,-99.9,30.09,WSW,256,4.0,6.0,-999,-99.99,,,-99.99,,2013-03-21 15:04:00,
2013-03-21 08:13:00,48.0,-99.9,30.09,West,269,5.0,6.0,-999,-99.99,,,-99.99,,2013-03-21 15:13:00,
2013-03-21 08:22:00,48.0,-99.9,30.10,West,279,4.0,6.0,-999,-99.99,,,-99.99,,2013-03-21 15:22:00,
2013-03-21 08:33:00,48.0,-99.9,30.10,West,279,3.0,5.0,-999,-99.99,,,-99.99,,2013-03-21 15:33:00,
2013-03-21 08:43:00,48.0,-99.9,30.10,NW,314,6.0,8.0,-999,-99.99,,,-99.99,,2013-03-21 15:43:00,
2013-03-21 08:53:00,48.0,-99.9,30.10,NNW,329,6.0,7.0,-999,-99.99,,,-99.99,,2013-03-21 15:53:00,
2013-03-21 09:03:00,48.0,-99.9,30.10,NNW,332,6.0,8.0,-999,-99.99,,,-99.99,,2013-03-21 16:03:00,
2013-03-21 09:13:00,48.0,-99.9,30.10,NNW,333,6.0,8.0,-999,-99.99,,,-99.99,,2013-03-21 16:13:00,
2013-03-21 09:23:00,48.0,-99.9,30.10,NNW,337,8.0,9.0,-999,-99.99,,,-99.99,,2013-03-21 16:23:00,
2013-03-21 09:33:00,48.0,-99.9,30.10,NNW,333,6.0,10.0,-999,-99.99,,,-99.99,,2013-03-21 16:33:00,
2013-03-21 09:42:00,48.0,-99.9,30.10,NNW,339,6.0,9.0,-999,-99.99,,,-99.99,,2013-03-21 16:42:00,
2013-03-21 09:53:00,49.0,-99.9,30.11,NW,323,5.0,8.0,-999,-99.99,,,-99.99,,2013-03-21 16:53:00,
2013-03-21 10:03:00,48.0,-99.9,30.11,NNW,336,7.0,10.0,-999,-99.99,,,-99.99,,2013-03-21 17:03:00,
2013-03-21 10:12:00,48.0,-99.9,30.11,NW,325,9.0,11.0,-999,-99.99,,,-99.99,,2013-03-21 17:12:00,
2013-03-21 10:23:00,49.0,-99.9,30.10,NNW,335,7.0,9.0,-999,-99.99,,,-99.99,,2013-03-21 17:23:00,
2013-03-21 10:33:00,49.0,-99.9,30.10,NW,310,8.0,9.0,-999,-99.99,,,-99.99,,2013-03-21 17:33:00,
2013-03-21 10:43:00,49.0,-99.9,30.11,NW,320,8.0,9.0,-999,-99.99,,,-99.99,,2013-03-21 17:43:00,
2013-03-21 10:53:00,49.0,-99.9,30.11,NW,321,8.0,9.0,-999,-99.99,,,-99.99,,2013-03-21 17:53:00,
2013-03-21 11:02:00,50.0,-99.9,30.11,NW,310,4.0,8.0,-999,-99.99,,,-99.99,,2013-03-21 18:02:00,
2013-03-21 11:12:00,50.0,-99.9,30.11,NW,317,6.0,8.0,-999,-99.99,,,-99.99,,2013-03-21 18:12:00,
2013-03-21 11:23:00,51.0,-99.9,30.11,WNW,294,4.0,8.0,-999,-99.99,,,-99.99,,2013-03-21 18:23:00,
2013-03-21 11:32:00,51.0,-99.9,30.11,NW,317,5.0,7.0,-999,-99.99,,,-99.99,,2013-03-21 18:32:00,
2013-03-21 11:43:00,51.0,-99.9,30.11,NW,304,6.0,7.0,-999,-99.99,,,-99.99,,2013-03-21 18:43:00,
2013-03-21 11:52:00,52.0,-99.9,30.11,NW,311,6.0,9.0,-999,-99.99,,,-99.99,,2013-03-21 18:52:00,
2013-03-21 12:02:00,52.0,-99.9,30.11,NW,305,5.0,9.0,-999,-99.99,,,-99.99,,2013-03-21 19:02:00,
2013-03-21 12:12:00,52.0,-99.9,30.11,NW,319,7.0,9.0,-999,-99.99,,,-99.99,,2013-03-21 19:12:00,
2013-03-21 12:23:00,53.0,-99.9,30.11,NW,319,6.0,9.0,-999,-99.99,,,-99.99,,2013-03-21 19:23:00,
2013-03-21 12:32:00,52.0,-99.9,30.10,NW,313,7.0,10.0,-999,-99.99,,,-99.99,,2013-03-21 19:32:00,
2013-03-21 12:43:00,53.0,-99.9,30.10,NW,307,6.0,9.0,-999,-99.99,,,-99.99,,2013-03-21 19:43:00,
2013-03-21 12:53:00,53.0,-99.9,30.10,NW,307,6.0,9.0,-999,-99.99,,,-99.99,,2013-03-21 19:53:00,
2013-03-21 13:02:00,53.0,-99.9,30.10,NW,307,6.0,9.0,-999,-99.99,,,-99.99,,2013-03-21 20:02:00,
2013-03-21 13:13:00,54.0,-99.9,30.10,NW,312,8.0,10.0,-999,-99.99,,,-99.99,,2013-03-21 20:13:00,
2013-03-21 13:23:00,55.0,-99.9,30.09,NW,305,8.0,11.0,-999,-99.99,,,-99.99,,2013-03-21 20:23:00,
2013-03-21 13:33:00,55.0,-99.9,30.09,WNW,302,8.0,11.0,-999,-99.99,,,-99.99,,2013-03-21 20:33:00,
2013-03-21 13:43:00,55.0,-99.9,30.09,NW,308,6.0,8.0,-999,-99.99,,,-99.99,,2013-03-21 20:43:00,
2013-03-21 13:53:00,56.0,-99.9,30.09,West,264,6.0,10.0,-999,-99.99,,,-99.99,,2013-03-21 20:53:00,
2013-03-21 14:03:00,57.0,-99.9,30.08,West,267,6.0,10.0,-999,-99.99,,,-99.99,,2013-03-21 21:03:00,
2013-03-21 14:12:00,57.0,-99.9,30.08,West,269,5.0,9.0,-999,-99.99,,,-99.99,,2013-03-21 21:12:00,
2013-03-21 14:23:00,58.0,-99.9,30.07,WSW,246,5.0,9.0,-999,-99.99,,,-99.99,,2013-03-21 21:23:00,
2013-03-21 14:33:00,59.0,-99.9,30.06,WSW,242,6.0,9.0,-999,-99.99,,,-99.99,,2013-03-21 21:33:00,
2013-03-21 14:43:00,58.0,-99.9,30.06,West,265,6.0,9.0,-999,-99.99,,,-99.99,,2013-03-21 21:43:00,
2013-03-21 14:53:00,58.0,-99.9,30.06,West,268,8.0,12.0,-999,-99.99,,,-99.99,,2013-03-21 21:53:00,
2013-03-21 15:03:00,57.0,-99.9,30.06,WSW,244,9.0,12.0,-999,-99.99,,,-99.99,,2013-03-21 22:03:00,
2013-03-21 15:13:00,57.0,-99.9,30.05,WSW,245,10.0,15.0,-999,-99.99,,,-99.99,,2013-03-21 22:13:00,
2013-03-21 15:23:00,58.0,-99.9,30.05,WSW,244,9.0,13.0,-999,-99.99,,,-99.99,,2013-03-21 22:23:00,
2013-03-21 15:34:00,58.0,-99.9,30.04,WSW,245,8.0,14.0,-999,-99.99,,,-99.99,,2013-03-21 22:34:00,
2013-03-21 15:43:00,57.0,-99.9,30.04,WSW,246,10.0,15.0,-999,-99.99,,,-99.99,,2013-03-21 22:43:00,
2013-03-21 15:53:00,57.0,-99.9,30.04,WSW,251,11.0,16.0,-999,-99.99,,,-99.99,,2013-03-21 22:53:00,
2013-03-21 16:02:00,58.0,-99.9,30.04,WSW,243,7.0,15.0,-999,-99.99,,,-99.99,,2013-03-21 23:02:00,
2013-03-21 16:12:00,57.0,-99.9,30.03,WSW,247,12.0,15.0,-999,-99.99,,,-99.99,,2013-03-21 23:12:00,
2013-03-21 16:22:00,58.0,-99.9,30.03,WSW,250,10.0,14.0,-999,-99.99,,,-99.99,,2013-03-21 23:22:00,
2013-03-21 16:33:00,57.0,-99.9,30.02,WSW,253,12.0,15.0,-999,-99.99,,,-99.99,,2013-03-21 23:33:00,
2013-03-21 16:43:00,58.0,-99.9,30.02,SW,231,9.0,13.0,-999,-99.99,,,-99.99,,2013-03-21 23:43:00,
2013-03-21 16:53:00,58.0,-99.9,30.02,WSW,245,12.0,17.0,-999,-99.99,,,-99.99,,2013-03-21 23:53:00,
2013-03-21 17:03:00,58.0,-99.9,30.02,WSW,245,12.0,17.0,-999,-99.99,,,-99.99,,2013-03-22 00:03:00,
2013-03-21 17:13:00,58.0,-99.9,30.02,WSW,250,12.0,17.0,-999,-99.99,,,-99.99,,2013-03-22 00:13:00,
2013-03-21 17:22:00,58.0,-99.9,30.01,SW,231,8.0,15.0,-999,-99.99,,,-99.99,,2013-03-22 00:22:00,
2013-03-21 17:32:00,58.0,-99.9,30.01,SW,231,8.0,15.0,-999,-99.99,,,-99.99,,2013-03-22 00:32:00,
2013-03-21 17:42:00,57.0,-99.9,30.01,WSW,251,11.0,17.0,-999,-99.99,,,-99.99,,2013-03-22 00:42:00,
2013-03-21 17:52:00,57.0,-99.9,30.01,WSW,247,13.0,17.0,-999,-99.99,,,-99.99,,2013-03-22 00:52:00,
2013-03-21 18:03:00,57.0,-99.9,30.01,WSW,247,13.0,17.0,-999,-99.99,,,-99.99,,2013-03-22 01:03:00,
2013-03-21 18:12:00,57.0,-99.9,30.00,WSW,239,10.0,14.0,-999,-99.99,,,-99.99,,2013-03-22 01:12:00,
2013-03-21 18:22:00,58.0,-99.9,30.00,WSW,245,8.0,13.0,-999,-99.99,,,-99.99,,2013-03-22 01:22:00,
2013-03-21 18:33:00,57.0,-99.9,30.00,WSW,245,12.0,18.0,-999,-99.99,,,-99.99,,2013-03-22 01:33:00,
2013-03-21 18:43:00,57.0,-99.9,30.00,SW,235,9.0,17.0,-999,-99.99,,,-99.99,,2013-03-22 01:43:00,
2013-03-21 18:53:00,57.0,-99.9,30.00,SW,229,9.0,13.0,-999,-99.99,,,-99.99,,2013-03-22 01:53:00,
2013-03-21 19:03:00,57.0,-99.9,30.00,WSW,237,10.0,15.0,-999,-99.99,,,-99.99,,2013-03-22 02:03:00,
2013-03-21 19:12:00,56.0,-99.9,30.00,WSW,238,10.0,13.0,-999,-99.99,,,-99.99,,2013-03-22 02:12:00,
2013-03-21 19:22:00,55.0,-99.9,30.00,WSW,242,10.0,17.0,-999,-99.99,,,-99.99,,2013-03-22 02:22:00,
2013-03-21 19:32:00,56.0,-99.9,30.00,WSW,238,5.0,13.0,-999,-99.99,,,-99.99,,2013-03-22 02:32:00,
2013-03-21 19:43:00,55.0,-99.9,30.00,WSW,237,5.0,11.0,-999,-99.99,,,-99.99,,2013-03-22 02:43:00,
2013-03-21 19:53:00,55.0,-99.9,30.00,SW,230,7.0,11.0,-999,-99.99,,,-99.99,,2013-03-22 02:53:00,
2013-03-21 20:02:00,55.0,-99.9,30.00,SW,236,6.0,8.0,-999,-99.99,,,-99.99,,2013-03-22 03:02:00,
2013-03-21 20:12:00,55.0,-99.9,30.00,WSW,242,6.0,10.0,-999,-99.99,,,-99.99,,2013-03-22 03:12:00,
2013-03-21 20:22:00,55.0,-99.9,30.00,WSW,243,4.0,6.0,-999,-99.99,,,-99.99,,2013-03-22 03:22:00,
2013-03-21 20:33:00,55.0,-99.9,30.00,WSW,243,4.0,6.0,-999,-99.99,,,-99.99,,2013-03-22 03:33:00,
2013-03-21 20:43:00,55.0,-99.9,30.01,SW,234,4.0,6.0,-999,-99.99,,,-99.99,,2013-03-22 03:43:00,
2013-03-21 20:53:00,54.0,-99.9,30.01,WSW,237,5.0,7.0,-999,-99.99,,,-99.99,,2013-03-22 03:53:00,
2013-03-21 21:04:00,54.0,-99.9,30.01,SSE,166,2.0,4.0,-999,-99.99,,,-99.99,,2013-03-22 04:04:00,
2013-03-21 21:13:00,54.0,-99.9,30.01,South,189,0.0,1.0,-999,-99.99,,,-99.99,,2013-03-22 04:13:00,
2013-03-21 21:23:00,54.0,-99.9,30.01,SW,227,-999.0,-999.0,-999,-99.99,,,-99.99,,2013-03-22 04:23:00,
2013-03-21 21:32:00,54.0,-99.9,30.01,ESE,108,2.0,2.0,-999,-99.99,,,-99.99,,2013-03-22 04:32:00,
2013-03-21 21:43:00,54.0,-99.9,30.01,ENE,58,3.0,3.0,-999,-99.99,,,-99.99,,2013-03-22 04:43:00,
2013-03-21 21:53:00,54.0,-99.9,30.02,ENE,77,4.0,5.0,-999,-99.99,,,-99.99,,2013-03-22 04:53:00,
2013-03-21 22:02:00,54.0,-99.9,30.02,NE,46,-999.0,3.0,-999,-99.99,,,-99.99,,2013-03-22 05:02:00,
2013-03-21 22:12:00,54.0,-99.9,30.03,NNE,20,3.0,4.0,-999,-99.99,,,-99.99,,2013-03-22 05:12:00,
2013-03-21 22:22:00,53.0,-99.9,30.03,North,5,2.0,2.0,-999,-99.99,,,-99.99,,2013-03-22 05:22:00,
2013-03-21 22:32:00,53.0,-99.9,30.03,NNW,345,1.0,2.0,-999,-99.99,,,-99.99,,2013-03-22 05:32:00,
2013-03-21 22:42:00,53.0,-99.9,30.03,North,2,2.0,3.0,-999,-99.99,,,-99.99,,2013-03-22 05:42:00,
2013-03-21 22:52:00,53.0,-99.9,30.03,NNW,337,1.0,2.0,-999,-99.99,,,-99.99,,2013-03-22 05:52:00,
2013-03-21 23:02:00,53.0,-99.9,30.03,NW,316,1.0,2.0,-999,-99.99,,,-99.99,,2013-03-22 06:02:00,
2013-03-21 23:13:00,53.0,-99.9,30.03,West,281,1.0,2.0,-999,-99.99,,,-99.99,,2013-03-22 06:13:00,
2013-03-21 23:22:00,53.0,-99.9,30.03,NW,317,3.0,4.0,-999,-99.99,,,-99.99,,2013-03-22 06:22:00,
2013-03-21 23:32:00,53.0,-99.9,30.03,West,264,2.0,3.0,-999,-99.99,,,-99.99,,2013-03-22 06:32:00,
2013-03-21 23:43:00,53.0,-99.9,30.03,WSW,252,1.0,2.0,-999,-99.99,,,-99.99,,2013-03-22 06:43:00,
2013-03-21 23:52:00,53.0,-99.9,30.03,WSW,244,2.0,3.0,-999,-99.99,,,-99.99,,2013-03-22 06:52:00,